Location: Roland
(31.1349°N, 85.4372°W)
Time: 01:21:18
(UTC+00:00)

S-56A Canister/Altair - Pass Details

Date: 20 April 2021
Orbit: 632 x 2500 km, 38.9° (Epoch: 06 May)

Event Time Altitude Azimuth Distance (km) Brightness Sun altitude
Rises 01:38:16 0° 202° (SSW) 5,710 11.9 -17.9°
Reaches altitude 10° 01:43:20 10° 191° (S) 4,416 11.2 -18.9°
Enters shadow 01:51:24 24° 147° (SSE) 2,892 9.9 -20.4°
